Time,TemperatureF,DewpointF,PressureIn,WindDirection,WindDirectionDegrees,WindSpeedMPH,WindSpeedGustMPH,Humidity,HourlyPrecipIn,Conditions,Clouds,dailyrainin,SoftwareType,DateUTC
2013-03-17 00:09:00,52.0,44.0,29.98,WSW,247,2.7,-999.0,74,-99.99,,,0.00,Acu-Link.com,2013-03-17 07:09:00,
2013-03-17 00:24:00,51.8,44.1,29.98,ESE,112,1.7,-999.0,75,-99.99,,,0.00,Acu-Link.com,2013-03-17 07:24:00,
2013-03-17 00:39:00,51.4,43.7,29.97,West,270,4.2,-999.0,75,-99.99,,,0.00,Acu-Link.com,2013-03-17 07:39:00,
2013-03-17 00:55:00,51.1,43.8,29.97,East,90,3.2,-999.0,76,-99.99,,,0.00,Acu-Link.com,2013-03-17 07:55:00,
2013-03-17 01:10:00,50.7,43.4,29.98,SW,225,2.7,-999.0,76,-99.99,,,0.00,Acu-Link.com,2013-03-17 08:10:00,
2013-03-17 01:25:00,50.7,43.4,29.97,South,180,2.7,-999.0,76,-99.99,,,0.00,Acu-Link.com,2013-03-17 08:25:00,
2013-03-17 01:40:00,50.4,43.5,29.98,East,90,3.2,-999.0,77,-99.99,,,0.00,Acu-Link.com,2013-03-17 08:40:00,
2013-03-17 01:55:00,50.2,43.3,29.99,WNW,292,4.7,-999.0,77,-99.99,,,0.00,Acu-Link.com,2013-03-17 08:55:00,
2013-03-17 02:10:00,50.2,43.3,29.98,SE,135,4.7,-999.0,77,-99.99,,,0.00,Acu-Link.com,2013-03-17 09:10:00,
2013-03-17 02:26:00,50.0,43.1,29.99,WNW,292,6.8,-999.0,77,-99.99,,,0.00,Acu-Link.com,2013-03-17 09:26:00,
2013-03-17 02:56:00,49.5,42.9,29.99,SW,225,2.7,-999.0,78,-99.99,,,0.00,Acu-Link.com,2013-03-17 09:56:00,
2013-03-17 03:11:00,49.5,42.9,30.00,West,270,3.2,-999.0,78,-99.99,,,0.00,Acu-Link.com,2013-03-17 10:11:00,
2013-03-17 03:42:00,48.2,42.3,29.99,WSW,247,3.7,-999.0,80,-99.99,,,0.00,Acu-Link.com,2013-03-17 10:42:00,
2013-03-17 04:12:00,48.7,42.2,29.98,WSW,247,2.2,-999.0,78,-99.99,,,0.00,Acu-Link.com,2013-03-17 11:12:00,
2013-03-17 04:27:00,47.8,41.9,29.98,WSW,247,2.7,-999.0,80,-99.99,,,0.00,Acu-Link.com,2013-03-17 11:27:00,
2013-03-17 04:42:00,47.8,41.9,29.97,WNW,292,3.7,-999.0,80,-99.99,,,0.00,Acu-Link.com,2013-03-17 11:42:00,
2013-03-17 04:58:00,48.0,41.8,29.97,SSW,202,2.7,-999.0,79,-99.99,,,0.00,Acu-Link.com,2013-03-17 11:58:00,
2013-03-17 05:13:00,47.5,42.3,29.98,SSW,202,2.2,-999.0,82,-99.99,,,0.00,Acu-Link.com,2013-03-17 12:13:00,
2013-03-17 05:28:00,47.3,41.8,29.99,SSW,202,2.7,-999.0,81,-99.99,,,0.00,Acu-Link.com,2013-03-17 12:28:00,
2013-03-17 05:43:00,47.3,41.4,29.98,WSW,247,2.2,-999.0,80,-99.99,,,0.00,Acu-Link.com,2013-03-17 12:43:00,
2013-03-17 05:59:00,47.1,40.9,29.97,WSW,247,2.2,-999.0,79,-99.99,,,0.00,Acu-Link.com,2013-03-17 12:59:00,
2013-03-17 06:14:00,47.1,40.9,29.96,SW,225,2.7,-999.0,79,-99.99,,,0.00,Acu-Link.com,2013-03-17 13:14:00,
2013-03-17 06:29:00,46.6,40.8,29.98,West,270,2.2,-999.0,80,-99.99,,,0.00,Acu-Link.com,2013-03-17 13:29:00,
2013-03-17 06:44:00,46.6,40.8,29.99,SW,225,3.2,-999.0,80,-99.99,,,0.00,Acu-Link.com,2013-03-17 13:44:00,
2013-03-17 06:59:00,45.9,40.7,30.00,SW,225,2.7,-999.0,82,-99.99,,,0.00,Acu-Link.com,2013-03-17 13:59:00,
2013-03-17 07:15:00,45.7,40.2,30.01,SW,225,2.7,-999.0,81,-99.99,,,0.00,Acu-Link.com,2013-03-17 14:15:00,
2013-03-17 07:30:00,46.2,40.7,30.01,SSW,202,2.7,-999.0,81,-99.99,,,0.00,Acu-Link.com,2013-03-17 14:30:00,
2013-03-17 07:45:00,47.7,41.8,30.02,SW,225,3.2,-999.0,80,-99.99,,,0.00,Acu-Link.com,2013-03-17 14:45:00,
2013-03-17 08:00:00,50.0,42.7,30.01,SSW,202,3.7,-999.0,76,-99.99,,,0.00,Acu-Link.com,2013-03-17 15:00:00,
2013-03-17 08:46:00,54.0,44.4,30.01,NNE,22,2.7,-999.0,70,-99.99,,,0.00,Acu-Link.com,2013-03-17 15:46:00,
2013-03-17 09:01:00,53.6,43.7,30.02,WSW,247,2.7,-999.0,69,-99.99,,,0.00,Acu-Link.com,2013-03-17 16:01:00,
2013-03-17 09:17:00,54.7,44.7,30.01,WSW,247,2.7,-999.0,69,-99.99,,,0.00,Acu-Link.com,2013-03-17 16:17:00,
2013-03-17 09:32:00,54.9,43.8,30.02,SSW,202,2.7,-999.0,66,-99.99,,,0.00,Acu-Link.com,2013-03-17 16:32:00,
2013-03-17 09:47:00,56.8,44.3,30.02,West,270,1.7,-999.0,63,-99.99,,,0.00,Acu-Link.com,2013-03-17 16:47:00,
2013-03-17 10:02:00,57.4,43.6,30.02,SSE,157,1.1,-999.0,60,-99.99,,,0.00,Acu-Link.com,2013-03-17 17:02:00,
2013-03-17 10:18:00,59.5,43.8,30.02,SSW,202,1.1,-999.0,56,-99.99,,,0.00,Acu-Link.com,2013-03-17 17:18:00,
2013-03-17 10:33:00,60.1,43.4,30.03,ESE,112,1.1,-999.0,54,-99.99,,,0.00,Acu-Link.com,2013-03-17 17:33:00,
2013-03-17 10:48:00,61.9,45.1,30.03,North,0,2.7,-999.0,54,-99.99,,,0.00,Acu-Link.com,2013-03-17 17:48:00,
2013-03-17 11:03:00,62.1,44.8,30.02,ENE,67,1.1,-999.0,53,-99.99,,,0.00,Acu-Link.com,2013-03-17 18:03:00,
2013-03-17 11:19:00,63.0,45.6,30.02,North,0,1.7,-999.0,53,-99.99,,,0.00,Acu-Link.com,2013-03-17 18:19:00,
2013-03-17 11:34:00,63.0,46.1,30.01,NNE,22,2.7,-999.0,54,-99.99,,,0.00,Acu-Link.com,2013-03-17 18:34:00,
2013-03-17 11:49:00,64.4,46.4,30.02,NE,45,3.7,-999.0,52,-99.99,,,0.00,Acu-Link.com,2013-03-17 18:49:00,
2013-03-17 12:04:00,64.0,47.0,30.02,NNE,22,3.7,-999.0,54,-99.99,,,0.00,Acu-Link.com,2013-03-17 19:04:00,
2013-03-17 12:19:00,64.4,47.9,30.00,ENE,67,4.7,-999.0,55,-99.99,,,0.00,Acu-Link.com,2013-03-17 19:19:00,
2013-03-17 12:50:00,64.6,47.1,30.00,North,0,3.2,-999.0,53,-99.99,,,0.00,Acu-Link.com,2013-03-17 19:50:00,
2013-03-17 13:05:00,66.9,44.9,29.99,ENE,67,3.2,-999.0,45,-99.99,,,0.00,Acu-Link.com,2013-03-17 20:05:00,
2013-03-17 13:20:00,67.6,43.1,29.98,SW,225,3.7,-999.0,41,-99.99,,,0.00,Acu-Link.com,2013-03-17 20:20:00,
2013-03-17 13:35:00,67.6,40.4,29.98,NNE,22,4.2,-999.0,37,-99.99,,,0.00,Acu-Link.com,2013-03-17 20:35:00,
2013-03-17 13:51:00,68.5,42.6,29.98,NE,45,4.2,-999.0,39,-99.99,,,0.00,Acu-Link.com,2013-03-17 20:51:00,
2013-03-17 14:21:00,68.7,42.1,29.95,NE,45,5.3,-999.0,38,-99.99,,,0.00,Acu-Link.com,2013-03-17 21:21:00,
2013-03-17 14:36:00,69.4,42.7,29.95,NE,45,4.2,-999.0,38,-99.99,,,0.00,Acu-Link.com,2013-03-17 21:36:00,
2013-03-17 14:51:00,70.0,46.5,29.94,NE,45,2.7,-999.0,43,-99.99,,,0.00,Acu-Link.com,2013-03-17 21:51:00,
2013-03-17 15:07:00,69.1,46.9,29.94,NE,45,2.7,-999.0,45,-99.99,,,0.00,Acu-Link.com,2013-03-17 22:07:00,
2013-03-17 15:37:00,69.3,45.8,29.93,NNE,22,6.3,-999.0,43,-99.99,,,0.00,Acu-Link.com,2013-03-17 22:37:00,
2013-03-17 15:52:00,68.9,43.6,29.92,East,90,4.2,-999.0,40,-99.99,,,0.00,Acu-Link.com,2013-03-17 22:52:00,
2013-03-17 16:08:00,68.7,47.1,29.92,NNW,337,3.2,-999.0,46,-99.99,,,0.00,Acu-Link.com,2013-03-17 23:08:00,
2013-03-17 16:23:00,67.8,44.5,29.92,SE,135,2.7,-999.0,43,-99.99,,,0.00,Acu-Link.com,2013-03-17 23:23:00,
2013-03-17 16:38:00,67.8,44.5,29.92,West,270,1.7,-999.0,43,-99.99,,,0.00,Acu-Link.com,2013-03-17 23:38:00,
2013-03-17 16:53:00,66.4,45.0,29.92,WSW,247,4.7,-999.0,46,-99.99,,,0.00,Acu-Link.com,2013-03-17 23:53:00,
2013-03-17 17:08:00,65.1,43.8,29.93,ENE,67,2.2,-999.0,46,-99.99,,,0.00,Acu-Link.com,2013-03-18 00:08:00,
2013-03-17 17:24:00,63.7,44.2,29.93,SW,225,3.2,-999.0,49,-99.99,,,0.00,Acu-Link.com,2013-03-18 00:24:00,
2013-03-17 17:39:00,61.9,42.0,29.92,South,180,2.7,-999.0,48,-99.99,,,0.00,Acu-Link.com,2013-03-18 00:39:00,
2013-03-17 17:54:00,61.2,41.4,29.92,WNW,292,4.2,-999.0,48,-99.99,,,0.00,Acu-Link.com,2013-03-18 00:54:00,
2013-03-17 18:09:00,59.0,41.4,29.91,WSW,247,4.7,-999.0,52,-99.99,,,0.00,Acu-Link.com,2013-03-18 01:09:00,
2013-03-17 18:24:00,57.9,41.4,29.92,SSW,202,1.1,-999.0,54,-99.99,,,0.00,Acu-Link.com,2013-03-18 01:24:00,
2013-03-17 18:40:00,58.1,41.1,29.93,ESE,112,0.0,-999.0,53,-99.99,,,0.00,Acu-Link.com,2013-03-18 01:40:00,
2013-03-17 18:55:00,56.1,40.2,29.92,WSW,247,2.2,-999.0,55,-99.99,,,0.00,Acu-Link.com,2013-03-18 01:55:00,
2013-03-17 19:10:00,55.4,40.0,29.91,SW,225,1.1,-999.0,56,-99.99,,,0.00,Acu-Link.com,2013-03-18 02:10:00,
2013-03-17 19:25:00,54.3,39.4,29.92,WSW,247,4.7,-999.0,57,-99.99,,,0.00,Acu-Link.com,2013-03-18 02:25:00,
2013-03-17 19:40:00,53.8,39.4,29.91,SW,225,3.2,-999.0,58,-99.99,,,0.00,Acu-Link.com,2013-03-18 02:40:00,
2013-03-17 19:56:00,53.1,39.6,29.92,West,270,3.7,-999.0,60,-99.99,,,0.00,Acu-Link.com,2013-03-18 02:56:00,
2013-03-17 20:11:00,52.9,39.4,29.92,SSW,202,0.0,-999.0,60,-99.99,,,0.00,Acu-Link.com,2013-03-18 03:11:00,
2013-03-17 20:26:00,51.8,40.0,29.92,South,180,1.1,-999.0,64,-99.99,,,0.00,Acu-Link.com,2013-03-18 03:26:00,
2013-03-17 20:41:00,50.9,40.3,29.92,North,0,1.7,-999.0,67,-99.99,,,0.00,Acu-Link.com,2013-03-18 03:41:00,
2013-03-17 21:27:00,50.0,40.2,29.94,SW,225,2.2,-999.0,69,-99.99,,,0.00,Acu-Link.com,2013-03-18 04:27:00,
2013-03-17 21:42:00,49.8,40.4,29.93,WSW,247,0.0,-999.0,70,-99.99,,,0.00,Acu-Link.com,2013-03-18 04:42:00,
2013-03-17 21:57:00,49.5,40.5,29.95,WNW,292,0.0,-999.0,71,-99.99,,,0.00,Acu-Link.com,2013-03-18 04:57:00,
2013-03-17 22:28:00,48.6,40.0,29.94,West,270,1.7,-999.0,72,-99.99,,,0.00,Acu-Link.com,2013-03-18 05:28:00,
2013-03-17 22:43:00,47.8,39.6,29.94,WSW,247,1.7,-999.0,73,-99.99,,,0.00,Acu-Link.com,2013-03-18 05:43:00,
2013-03-17 22:58:00,47.7,40.2,29.96,SSW,202,1.1,-999.0,75,-99.99,,,0.00,Acu-Link.com,2013-03-18 05:58:00,
2013-03-17 23:13:00,48.0,40.8,29.96,South,180,0.0,-999.0,76,-99.99,,,0.00,Acu-Link.com,2013-03-18 06:13:00,
2013-03-17 23:29:00,47.5,40.7,29.95,SSW,202,1.1,-999.0,77,-99.99,,,0.00,Acu-Link.com,2013-03-18 06:29:00,
2013-03-17 23:44:00,48.0,41.1,29.94,SW,225,1.1,-999.0,77,-99.99,,,0.00,Acu-Link.com,2013-03-18 06:44:00,
2013-03-17 23:59:00,48.0,41.1,29.94,SSW,202,3.2,-999.0,77,-99.99,,,0.00,Acu-Link.com,2013-03-18 06:59:00,